User: anonymous   Login
Location: Chateh
(58.6667°N, 118.6000°W)
Time: 08:11:56
(UTC+00:00)
Language:

COSMOS 2251 DEB - Orbit

View from above orbital plane
View from above orbital plane
View from above satellite
View from above satellite

Ground track
Ground track

The orbit data is extracted from the following two-line orbital elements,

1 40238U 93036BVT 24134.55641671  .00003915  00000-0  40943-2 0  9997
2 40238  73.9901 229.3798 0565814 312.3004  43.1416 13.21618464463862
Epoch (UTC): 13 May 2024 13:21:14
Eccentricity: 0.0565814
inclination: 73.9901°
perigee height: 751 km
apogee height: 1606 km
right ascension of ascending node: 229.3798°
argument of perigee: 312.3004°
revolutions per day: 13.21618464
mean anomaly at epoch: 43.1416°
orbit number at epoch: 46386

The dashed part of the orbit path shows where the satellite is in the earth's shadow,  

DLR